Flag for U.S.A. Weather past 2 weeks in Arlington, Texas, U.S.A.

Now
77 °F

Sunny.


Feels Like: 78 °F
Forecast: 60 / 78 °F
Wind: 17 mph from West

Location: Arlington Municipal Airport

Current Time: Apr 19, 2015 at 1:12:46 PM

Latest Report: Apr 19, 2015 at 12:53 PM


Visibility: 10 mi

Pressure: 29.72 "Hg

Humidity: 45%

Dew point: 54 °F

Location of ArlingtonLocation

Historic Weather in Arlington — Graph

°F

Arlington temperature yesterday

Maximum temperature yesterday: 81 °F (at 4:53 PM)
Minimum temperature yesterday: 58 °F (at 7:00 AM)
Average temperature yesterday: 69 °F

Past Weeks' High & Low Weather Summary

 TemperatureHumidityPressure
High84 °F (Apr 6, 4:53 PM)93% (Apr 6, 1:53 AM)30.37 "Hg (Apr 6, 1:53 AM)
Low51 °F (Apr 11, 2:53 AM)21% (Apr 4, 4:53 PM)29.70 "Hg (Apr 19, 6:53 AM)
Average67 °F71%29.94 "Hg
* Reported Apr 4 11:53 AM — Apr 19 11:53 AM, Arlington, Weather by CustomWeather, © 2015

Note: Actual official high and low records may vary slightly from our data, if they occured in-between our weather recording intervals... More about our weather records

Advertising

Arlington weather history for previous 24 hours

 ConditionsComfort  
Time TempWeatherWind HumidityBarometerVisibility
11:53 AM
Sun, Apr 19
76 °FSunny.14 mph45%29.71 "Hg10 mi
10:53 AM72 °FScattered clouds.9 mph68%29.71 "Hg10 mi
9:53 AM67 °FPartly sunny.8 mph81%29.72 "Hg10 mi
8:53 AM63 °FLow clouds.8 mph87%29.72 "Hg10 mi
7:53 AM59 °FPassing clouds.8 mph87%29.70 "Hg10 mi
6:53 AM58 °FPassing clouds.8 mph87%29.70 "Hg10 mi
5:53 AM56 °FPassing clouds.3 mph90%29.72 "Hg10 mi
4:53 AM55 °FClear.No wind90%29.73 "Hg10 mi
3:53 AM57 °FClear.No wind90%29.74 "Hg10 mi
2:53 AM58 °FClear.5 mph87%29.74 "Hg10 mi
1:53 AM59 °FClear.3 mph87%29.75 "Hg10 mi
12:53 AM59 °FClear.5 mph90%29.77 "Hg10 mi
11:53 PM
Sat, Apr 18
60 °FClear.5 mph86%29.75 "Hg10 mi
10:53 PM61 °FCool.3 mph81%29.77 "Hg10 mi
8:01 PM61 °FStrong thunderstorms. Broken clouds.33 mph75%29.75 "Hg2 mi
7:53 PM62 °FStrong thunderstorms. Partly sunny.20 mph70%29.77 "Hg7 mi
6:53 PM77 °FSunny.7 mph58%29.71 "Hg10 mi
5:53 PM79 °FSunny.7 mph54%29.72 "Hg10 mi
4:53 PM81 °FPassing clouds.12 mph53%29.73 "Hg10 mi
3:53 PM79 °FBroken clouds.6 mph52%29.75 "Hg10 mi
2:53 PM78 °FScattered clouds.3 mph54%29.79 "Hg10 mi
1:53 PM78 °FSunny.3 mph54%29.81 "Hg10 mi
Weather by CustomWeather, © 2015

See weather overviewHow to use our weather pages